Location: Rocktram
(38.2574°N, 122.2805°W)
Time: 01:43:09
(UTC+00:00)

ATLAS 2AS CENTAUR R/B - Pass Details

Date: 30 March 2020
Orbit: 933 x 1279 km, 63.7° (Epoch: 25 May)

Event Time Altitude Azimuth Distance (km) Brightness Sun altitude
Rises 05:46:15 0° 329° (NNW) 4,160 6.7 -35.8°
Reaches altitude 10° 05:49:12 10° 334° (NNW) 3,151 5.8 -36.2°
Enters shadow 05:54:52 46° 9° (N) 1,518 3.5 -37.0°
